When you browse on this site, cookies collect data to enhance your experience and personalize the content and advertising you see.
Visit our Privacy Policy to learn more. By continuing to use the site, you agree to this use of cookies and data.
  • în România
  • Lista ţărilor
  • Pe 7 zile
  • Temperatura apei
  • Meteo pe hartă
  • Widget-uri
  • user-avatar
    Intrare

    Meteo pe oră la Ghanzi

    Astăzi, 17 Noiembrie, Duminică

    Timp Temperatura Precipitaţii Vânt Presiune Umiditate
    00:00 +22°C° 0 mm 3 m/s 714 mmHg 30%
    01:00 +21°C° 0 mm 3 m/s 713 mmHg 31%
    02:00 +20°C° 0 mm 2 m/s 713 mmHg 33%
    03:00 +19°C° 0 mm 2 m/s 713 mmHg 36%
    04:00 +19°C° 0 mm 1 m/s 713 mmHg 38%
    05:00 +20°C° 0 mm 1 m/s 713 mmHg 35%
    06:00 +21°C° 0 mm 2 m/s 714 mmHg 33%
    07:00 +22°C° 0 mm 3 m/s 715 mmHg 30%
    08:00 +25°C° 0 mm 3 m/s 715 mmHg 27%
    09:00 +27°C° 0 mm 3 m/s 715 mmHg 23%
    10:00 +30°C° 0 mm 3 m/s 716 mmHg 20%
    11:00 +31°C° 0 mm 3 m/s 715 mmHg 19%
    12:00 +33°C° 0 mm 3 m/s 714 mmHg 17%
    13:00 +34°C° 0 mm 2 m/s 714 mmHg 16%
    14:00 +34°C° 0 mm 2 m/s 713 mmHg 16%
    15:00 +32°C° 0 mm 1 m/s 713 mmHg 17%
    16:00 +32°C° 0 mm 1 m/s 713 mmHg 17%
    17:00 +30°C° 0 mm 1 m/s 713 mmHg 19%
    18:00 +28°C° 0 mm 1 m/s 713 mmHg 22%
    19:00 +26°C° 0 mm 2 m/s 713 mmHg 24%
    20:00 +26°C° 0 mm 2 m/s 714 mmHg 24%
    21:00 +25°C° 0 mm 2 m/s 714 mmHg 25%
    22:00 +25°C° 0 mm 2 m/s 714 mmHg 25%
    23:00 +24°C° 0 mm 2 m/s 714 mmHg 27%

    Mâine, 18 Noiembrie, Luni

    Timp Temperatura Precipitaţii Vânt Presiune Umiditate
    00:00 +23°C° 0 mm 2 m/s 713 mmHg 29%
    01:00 +22°C° 0 mm 1 m/s 713 mmHg 30%
    02:00 +21°C° 0 mm 2 m/s 713 mmHg 29%
    03:00 +21°C° 0 mm 2 m/s 713 mmHg 29%
    04:00 +21°C° 0 mm 2 m/s 713 mmHg 28%
    05:00 +21°C° 0 mm 2 m/s 713 mmHg 27%
    06:00 +22°C° 0 mm 3 m/s 714 mmHg 26%
    07:00 +22°C° 0 mm 3 m/s 714 mmHg 25%
    08:00 +26°C° 0 mm 3 m/s 715 mmHg 22%
    09:00 +28°C° 0 mm 3 m/s 715 mmHg 19%
    10:00 +31°C° 0 mm 3 m/s 716 mmHg 16%
    11:00 +33°C° 0 mm 3 m/s 715 mmHg 15%
    12:00 +34°C° 0 mm 2 m/s 715 mmHg 15%
    13:00 +34°C° 0 mm 1 m/s 714 mmHg 14%
    14:00 +33°C° 0 mm 1 m/s 714 mmHg 14%
    15:00 +33°C° 0 mm 1 m/s 714 mmHg 15%
    16:00 +32°C° 0 mm 1 m/s 713 mmHg 16%
    17:00 +31°C° 0 mm 1 m/s 714 mmHg 18%
    18:00 +29°C° 0 mm 2 m/s 714 mmHg 19%
    19:00 +27°C° 0 mm 3 m/s 714 mmHg 21%
    20:00 +27°C° 0 mm 3 m/s 714 mmHg 22%
    21:00 +26°C° 0 mm 3 m/s 715 mmHg 23%
    22:00 +25°C° 0 mm 3 m/s 715 mmHg 24%
    23:00 +25°C° 0 mm 3 m/s 715 mmHg 25%

    Poimâine, 19 Noiembrie, Marţi

    Timp Temperatura Precipitaţii Vânt Presiune Umiditate
    00:00 +24°C° 0 mm 3 m/s 715 mmHg 26%
    01:00 +23°C° 0 mm 2 m/s 714 mmHg 27%
    02:00 +23°C° 0 mm 2 m/s 715 mmHg 28%
    03:00 +21°C° 0 mm 2 m/s 715 mmHg 29%
    04:00 +21°C° 0 mm 2 m/s 715 mmHg 29%
    05:00 +21°C° 0 mm 2 m/s 715 mmHg 28%
    06:00 +23°C° 0 mm 2 m/s 716 mmHg 27%
    07:00 +23°C° 0 mm 2 m/s 716 mmHg 25%
    08:00 +26°C° 0 mm 2 m/s 716 mmHg 22%
    09:00 +28°C° 0 mm 2 m/s 717 mmHg 18%
    10:00 +30°C° 0 mm 2 m/s 717 mmHg 14%
    11:00 +32°C° 0 mm 2 m/s 716 mmHg 14%
    12:00 +34°C° 0 mm 2 m/s 716 mmHg 13%
    13:00 +34°C° 0 mm 1 m/s 715 mmHg 13%
    14:00 +33°C° 0 mm 1 m/s 715 mmHg 13%
    15:00 +33°C° 0 mm 1 m/s 715 mmHg 14%
    16:00 +32°C° 0 mm 1 m/s 715 mmHg 14%
    17:00 +31°C° 0 mm 2 m/s 715 mmHg 16%
    18:00 +29°C° 0 mm 3 m/s 715 mmHg 18%
    19:00 +28°C° 0 mm 3 m/s 715 mmHg 19%
    20:00 +27°C° 0 mm 3 m/s 715 mmHg 20%
    21:00 +26°C° 0 mm 3 m/s 715 mmHg 21%
    22:00 +25°C° 0 mm 3 m/s 715 mmHg 22%
    23:00 +24°C° 0 mm 3 m/s 715 mmHg 23%

    20 Noiembrie, Miercuri

    Timp Temperatura Precipitaţii Vânt Presiune Umiditate
    00:00 +24°C° 0 mm 3 m/s 715 mmHg 24%
    01:00 +23°C° 0 mm 2 m/s 715 mmHg 25%
    02:00 +21°C° 0 mm 2 m/s 715 mmHg 25%
    03:00 +21°C° 0 mm 2 m/s 715 mmHg 25%
    04:00 +20°C° 0 mm 2 m/s 715 mmHg 26%
    05:00 +21°C° 0 mm 2 m/s 715 mmHg 24%
    06:00 +21°C° 0 mm 2 m/s 716 mmHg 23%
    07:00 +23°C° 0 mm 2 m/s 717 mmHg 21%
    08:00 +26°C° 0 mm 2 m/s 717 mmHg 19%
    09:00 +28°C° 0 mm 3 m/s 717 mmHg 17%
    10:00 +30°C° 0 mm 3 m/s 717 mmHg 14%
    11:00 +31°C° 0 mm 3 m/s 717 mmHg 14%
    12:00 +32°C° 0 mm 2 m/s 716 mmHg 13%
    13:00 +35°C° 0 mm 2 m/s 715 mmHg 12%
    14:00 +34°C° 0 mm 2 m/s 715 mmHg 13%
    15:00 +34°C° 0 mm 2 m/s 715 mmHg 13%
    16:00 +34°C° 0 mm 2 m/s 715 mmHg 14%
    17:00 +31°C° 0 mm 3 m/s 715 mmHg 15%
    18:00 +29°C° 0 mm 3 m/s 715 mmHg 16%
    19:00 +27°C° 0 mm 4 m/s 715 mmHg 18%
    20:00 +26°C° 0 mm 4 m/s 715 mmHg 18%
    21:00 +26°C° 0 mm 4 m/s 715 mmHg 18%
    22:00 +25°C° 0 mm 3 m/s 716 mmHg 18%
    23:00 +24°C° 0 mm 3 m/s 715 mmHg 19%

    21 Noiembrie, Joi

    Timp Temperatura Precipitaţii Vânt Presiune Umiditate
    00:00 +23°C° 0 mm 2 m/s 715 mmHg 19%
    01:00 +21°C° 0 mm 2 m/s 715 mmHg 20%
    02:00 +21°C° 0 mm 2 m/s 715 mmHg 21%
    03:00 +21°C° 0 mm 2 m/s 715 mmHg 21%
    04:00 +20°C° 0 mm 2 m/s 715 mmHg 22%
    05:00 +21°C° 0 mm 2 m/s 715 mmHg 21%
    06:00 +21°C° 0 mm 2 m/s 715 mmHg 20%
    07:00 +22°C° 0 mm 3 m/s 716 mmHg 20%
    08:00 +25°C° 0 mm 3 m/s 716 mmHg 17%
    09:00 +28°C° 0 mm 3 m/s 716 mmHg 14%
    10:00 +30°C° 0 mm 4 m/s 716 mmHg 11%
    11:00 +31°C° 0 mm 3 m/s 716 mmHg 11%
    12:00 +33°C° 0 mm 3 m/s 715 mmHg 10%
    13:00 +34°C° 0 mm 3 m/s 715 mmHg 10%
    14:00 +34°C° 0 mm 2 m/s 714 mmHg 10%
    15:00 +32°C° 0 mm 2 m/s 714 mmHg 11%
    16:00 +32°C° 0 mm 2 m/s 714 mmHg 11%
    17:00 +30°C° 0 mm 2 m/s 714 mmHg 12%
    18:00 +29°C° 0 mm 3 m/s 714 mmHg 13%
    19:00 +27°C° 0 mm 4 m/s 714 mmHg 14%
    20:00 +26°C° 0 mm 3 m/s 714 mmHg 15%
    21:00 +25°C° 0 mm 3 m/s 714 mmHg 15%
    22:00 +24°C° 0 mm 2 m/s 715 mmHg 15%
    23:00 +23°C° 0 mm 2 m/s 714 mmHg 16%

    22 Noiembrie, Vineri

    Timp Temperatura Precipitaţii Vânt Presiune Umiditate
    00:00 +21°C° 0 mm 2 m/s 714 mmHg 16%
    01:00 +21°C° 0 mm 1 m/s 714 mmHg 17%
    02:00 +20°C° 0 mm 2 m/s 714 mmHg 16%
    03:00 +20°C° 0 mm 2 m/s 714 mmHg 16%
    04:00 +20°C° 0 mm 2 m/s 713 mmHg 15%
    05:00 +21°C° 0 mm 2 m/s 714 mmHg 14%
    06:00 +21°C° 0 mm 2 m/s 714 mmHg 13%
    07:00 +23°C° 0 mm 2 m/s 715 mmHg 11%
    08:00 +25°C° 0 mm 2 m/s 715 mmHg 10%
    09:00 +28°C° 0 mm 2 m/s 716 mmHg 9%
    10:00 +30°C° 0 mm 3 m/s 716 mmHg 7%
    11:00 +31°C° 0 mm 3 m/s 715 mmHg 8%
    12:00 +32°C° 0 mm 2 m/s 715 mmHg 8%
    13:00 +34°C° 0 mm 2 m/s 714 mmHg 8%
    14:00 +34°C° 0 mm 2 m/s 714 mmHg 8%
    15:00 +32°C° 0 mm 2 m/s 714 mmHg 9%
    16:00 +32°C° 0 mm 2 m/s 713 mmHg 9%
    17:00 +30°C° 0 mm 2 m/s 714 mmHg 11%
    18:00 +28°C° 0 mm 2 m/s 714 mmHg 12%
    19:00 +26°C° 0 mm 3 m/s 714 mmHg 13%
    20:00 +25°C° 0 mm 2 m/s 714 mmHg 14%
    21:00 +24°C° 0 mm 2 m/s 714 mmHg 14%
    22:00 +23°C° 0 mm 2 m/s 715 mmHg 15%
    23:00 +23°C° 0 mm 2 m/s 715 mmHg 15%
    Arată mai mult